This is the latest recevied weather packets stored in our database for station/object IW3HBX-13. If no packets are shown the sender has not sent any weather packets the latest 10 day(s).
| Time | Temp. | Humidity | Pressure | Rain* | Wind** | Luminosity | Snow |
|---|---|---|---|---|---|---|---|
| 1777663087 | 15.56° C | 41% | 1025.7 hPa | 0 mm | - | 0 W/m² | - |
| 1777662727 | 16.11° C | 44% | 1025.7 hPa | 0 mm | - | 0 W/m² | - |
| 1777662370 | 16.11° C | 42% | 1025.6 hPa | 0 mm | - | 0 W/m² | - |
| 1777661648 | 16.67° C | 39% | 1025.5 hPa | 0 mm | - | 0 W/m² | - |
| 1777661287 | 17.22° C | 38% | 1025.5 hPa | 0 mm | - | 0 W/m² | - |
| 1777660929 | 17.22° C | 38% | 1025.4 hPa | 0 mm | - | 0 W/m² | - |
| 1777660569 | 17.22° C | 38% | 1025.3 hPa | 0 mm | - | 1 W/m² | - |
| 1777660207 | 17.78° C | 36% | 1025.3 hPa | 0 mm | - | 1 W/m² | - |
| 1777659847 | 17.78° C | 37% | 1025.3 hPa | 0 mm | - | 2 W/m² | - |
| 1777659487 | 17.78° C | 36% | 1025.3 hPa | 0 mm | - | 4 W/m² | - |
| 1777659129 | 18.33° C | 36% | 1025.2 hPa | 0 mm | - | 5 W/m² | - |
| 1777658769 | 18.33° C | 35% | 1025.2 hPa | 0 mm | - | 9 W/m² | - |
| 1777658047 | 18.89° C | 34% | 1025.1 hPa | 0 mm | - | 16 W/m² | - |
| 1777657688 | 18.89° C | 34% | 1025.1 hPa | 0 mm | - | 19 W/m² | - |
| 1777657327 | 19.44° C | 33% | 1025 hPa | 0 mm | - | 27 W/m² | - |
| 1777656968 | 19.44° C | 32% | 1025 hPa | 0 mm | - | 33 W/m² | - |
| 1777656607 | 20° C | 32% | 1025 hPa | 0 mm | - | 39 W/m² | - |
| 1777656247 | 20° C | 31% | 1024.9 hPa | 0 mm | - | 43 W/m² | - |
| 1777655887 | 20° C | 31% | 1025 hPa | 0 mm | - | 48 W/m² | - |
| 1777655527 | 20° C | 31% | 1025 hPa | 0 mm | - | 55 W/m² | - |
| 1777655168 | 20.56° C | 29% | 1025.1 hPa | 0 mm | - | 63 W/m² | - |
| 1777654447 | 20.56° C | 29% | 1025 hPa | 0 mm | - | 85 W/m² | - |
| 1777654087 | 20.56° C | 29% | 1025.1 hPa | 0 mm | - | 98 W/m² | - |
| 1777653727 | 20.56° C | 29% | 1025.1 hPa | 0 mm | - | 113 W/m² | - |
| 1777653370 | 20.56° C | 29% | 1025.2 hPa | 0 mm | - | 125 W/m² | - |
* Rain latest hour (hover to see other rain measurements)
** Current wind speed in m/s (hover to see current wind gust speed)